Wind_Speed
21 20 20 19 18 17 17 16 15 15 14 15 15 16 16 16 16 16 15 15 15 15 16 17 18 18 18 19 19 20 21 21 21 21 20 21 21 21 20 19 19 20 20 21
22 22 21 21 20 19 19 18 18 17 16 16 17 17 18 18 18 17 17 17 17 17 18 18 19 20 20 20 21 21 21 21 21 21 21 21 20 20 19 19 20 21 22 22
22 22 22 22 21 20 20 20 19 18 18 18 19 19 19 19 19 19 19 19 19 19 20 20 21 21 22 21 21 21 21 21 22 23 22 21 21 20 19 20 21 22 23 24
23 23 23 22 21 21 21 21 21 21 20 20 20 20 20 20 20 21 21 21 21 21 22 22 22 22 21 22 22 22 22 22 23 24 23 22 22 22 21 22 23 23 24 24
24 23 23 23 22 21 22 23 23 23 22 21 21 21 21 21 22 22 22 22 23 23 23 23 23 23 23 24 24 24 23 24 24 24 24 24 24 24 24 24 24 25 26 26
26 24 24 23 23 22 23 24 24 24 23 23 22 22 22 22 23 24 24 24 24 24 25 25 24 24 25 26 26 26 26 25 25 25 25 25 26 26 26 25 25 26 26 26
26 25 25 24 24 23 24 24 24 24 24 24 24 24 24 24 24 25 25 25 26 26 26 26 27 27 27 27 27 27 27 27 27 27 27 27 27 27 27 27 27 27 26 26
26 25 25 25 26 25 25 24 24 24 24 25 25 25 25 25 25 25 26 26 27 27 27 28 28 28 29 29 29 28 29 29 29 29 28 28 28 28 27 28 28 27 27 27
27 27 27 26 26 26 26 25 25 25 25 25 26 26 26 26 26 26 26 27 28 29 29 29 29 29 30 30 30 30 30 31 31 30 29 29 29 29 29 29 28 28 29 29
29 28 28 28 27 26 26 26 26 25 25 25 25 26 26 26 27 27 28 28 29 29 29 30 31 31 31 32 32 32 32 31 31 30 29 30 30 30 29 28 29 29 29 29
28 29 29 29 28 28 27 27 26 26 25 25 26 26 27 28 28 28 29 29 30 30 30 31 31 32 33 34 34 34 33 32 31 30 29 30 30 29 29 29 29 30 30 30
28 28 28 27 27 28 28 27 27 27 27 26 27 27 27 28 28 29 29 30 31 31 31 32 32 33 33 33 34 33 33 33 33 32 31 31 30 30 30 29 30 30 31 31
29 28 28 28 28 28 28 28 28 28 28 28 28 28 28 28 28 29 30 30 31 31 32 32 33 33 34 33 33 33 33 33 32 32 32 31 30 30 30 30 30 31 31 32
29 29 29 28 28 28 28 29 29 29 29 29 29 28 28 29 29 29 29 30 31 31 31 32 33 33 33 33 33 33 33 34 33 32 31 31 30 30 30 31 31 31 32 32
27 27 28 29 29 29 29 29 29 29 29 29 29 29 29 29 29 30 30 30 30 30 31 31 31 32 32 32 32 33 33 33 33 33 32 32 31 30 31 31 31 32 32 33
25 25 26 27 28 28 29 29 29 28 29 29 29 30 30 30 30 30 30 30 31 31 31 31 31 30 30 30 31 32 32 32 32 32 32 32 32 31 30 30 31 31 32 33
25 25 26 26 26 26 27 27 27 27 28 28 28 29 30 30 30 30 29 30 30 31 31 31 31 31 30 31 30 31 30 30 30 30 31 31 31 31 30 30 30 31 32 34
26 26 26 26 25 25 25 27 27 27 27 27 27 27 27 27 28 28 29 29 30 30 30 30 31 30 30 30 30 30 30 30 30 30 30 31 31 31 31 31 31 31 32 32
25 25 25 25 24 24 25 25 26 26 26 26 26 26 26 27 28 28 28 29 29 30 30 30 30 30 30 30 29 29 30 30 30 29 29 30 30 31 31 31 31 32 33 33
25 24 24 24 24 24 24 24 24 25 25 25 26 26 27 27 28 28 28 28 28 29 29 29 29 30 30 29 28 28 28 28 28 28 28 28 29 30 31 32 32 33 34 34
24 24 24 24 24 24 23 23 24 25 25 25 25 26 26 27 28 28 28 27 27 28 28 27 28 28 28 27 27 28 28 27 27 27 28 28 29 30 30 31 32 33 34 34
24 24 24 24 24 23 23 23 24 24 25 25 25 26 26 27 27 27 27 27 27 27 27 26 26 26 26 26 26 27 27 27 26 26 27 27 28 29 30 31 32 33 33 33
23 23 24 24 24 24 24 24 24 24 25 25 25 25 26 26 26 26 26 26 26 26 26 25 25 25 25 26 26 26 26 26 26 26 27 28 28 29 30 31 32 33 33 33
22 23 23 23 23 23 23 24 24 25 24 25 25 25 25 25 25 26 26 25 25 25 25 25 25 25 26 26 27 27 27 27 27 28 28 29 29 29 30 31 31 31 32 32
21 21 21 21 21 22 22 23 24 24 24 24 24 24 24 24 25 26 26 25 25 25 26 26 26 27 27 27 27 27 27 28 29 29 29 30 30 30 31 31 32 32 32 31
19 19 20 21 21 21 21 22 23 23 23 23 23 23 24 24 25 25 25 25 25 25 26 26 26 26 27 27 27 28 28 29 29 29 30 30 31 31 32 32 33 33 32 32
18 18 18 19 20 21 21 21 22 22 23 23 24 23 24 24 25 25 25 24 24 25 25 25 25 26 27 28 28 28 29 29 29 29 30 30 30 31 31 31 31 32 32 32
Wind_Direction
232 235 236 238 239 241 241 244 250 257 260 261 263 266 270 271 273 277 279 281 285 288 289 289 290 292 293 293 294 294 296 298 296 297 298 295 294 293 292 288 286 285 283 283
239 240 239 239 241 243 245 249 253 258 261 261 263 265 268 270 273 277 277 279 283 285 287 289 290 289 290 293 296 295 297 298 299 297 296 295 295 295 293 290 286 283 282 284
241 243 242 241 242 245 248 251 254 259 262 260 261 265 269 271 272 276 277 281 282 283 287 289 290 292 291 292 293 295 295 297 298 299 296 294 295 296 295 295 292 288 286 287
241 241 243 243 245 249 250 252 255 260 263 263 264 266 267 268 270 273 275 279 281 283 285 287 290 291 291 293 295 295 294 296 296 294 293 290 290 292 294 294 292 288 287 285
240 244 247 247 249 252 253 254 256 259 262 263 265 265 265 268 272 274 274 277 280 281 284 287 288 289 291 293 294 294 294 295 293 293 290 288 287 288 289 290 290 289 288 287
239 241 247 251 253 255 257 257 257 259 260 261 263 264 266 269 272 274 276 278 280 282 284 285 287 288 291 292 292 291 292 293 290 290 289 288 287 286 285 286 287 287 287 288
240 244 248 250 253 255 257 259 260 261 261 261 262 263 266 269 272 274 276 278 281 282 283 283 285 288 291 291 291 289 292 293 289 289 288 288 287 286 285 285 286 287 288 287
240 244 247 250 254 255 257 259 261 261 263 263 263 264 266 269 272 273 275 277 281 281 281 282 284 286 288 289 288 289 291 291 288 287 286 286 286 286 286 287 287 287 287 286
240 245 249 252 255 256 258 260 261 262 264 265 264 266 268 270 272 273 274 277 280 280 280 282 284 285 287 288 288 288 289 289 288 286 284 285 286 287 287 289 289 288 286 286
242 246 250 253 254 257 260 261 262 264 266 267 267 267 268 270 272 273 275 277 278 279 279 280 283 286 287 287 287 286 287 287 287 284 284 285 287 289 289 289 290 289 288 287
244 247 250 252 254 257 260 261 262 265 267 267 268 268 269 271 272 274 276 277 278 278 279 280 283 284 286 287 287 286 284 283 284 284 284 285 287 287 288 289 290 288 287 287
245 248 251 253 255 257 258 259 261 264 265 267 268 268 270 272 273 274 276 276 277 277 278 279 282 283 284 286 286 285 284 282 283 285 285 285 285 287 287 288 290 290 288 288
245 249 252 254 255 258 259 260 261 263 266 267 268 269 270 272 273 275 276 277 276 277 278 279 282 284 285 285 285 284 284 283 284 284 284 286 286 287 287 287 288 289 289 288
247 251 252 254 255 257 260 261 263 265 267 268 269 271 272 273 274 276 277 278 278 278 279 280 281 283 285 286 286 286 285 285 285 284 285 287 288 288 289 289 289 289 289 288
248 251 254 255 256 258 260 261 262 264 265 267 269 270 272 275 276 276 277 278 279 281 282 283 284 285 285 285 286 286 286 286 286 286 286 287 289 290 290 290 290 289 289 289
250 254 257 258 258 259 260 262 263 264 266 267 268 269 271 273 275 277 278 278 280 282 284 285 287 287 287 288 289 289 287 285 285 285 286 287 287 289 291 291 291 290 290 290
254 257 258 260 260 260 261 263 265 267 268 266 268 269 271 273 275 277 279 280 281 282 284 286 288 289 289 289 290 290 290 290 289 287 288 289 289 290 291 291 291 291 290 290
253 256 257 259 260 261 262 264 266 267 268 267 268 272 274 276 277 279 279 280 282 283 285 287 288 288 289 289 290 290 290 290 288 287 288 289 289 290 291 290 290 291 292 292
253 255 256 257 258 259 261 263 264 264 264 266 268 271 275 279 281 283 283 283 284 286 287 289 289 289 290 290 290 289 290 289 288 288 289 289 289 290 290 290 290 291 293 294
251 253 254 256 257 258 260 261 262 262 262 266 269 272 275 278 281 283 284 285 286 286 287 288 288 288 289 290 290 292 293 293 291 291 291 291 291 291 291 291 292 294 294 295
250 252 253 255 257 258 260 261 262 263 265 268 272 275 277 280 282 284 285 285 285 286 286 287 288 289 289 290 291 292 292 292 292 293 294 294 294 294 294 295 295 296 297 297
249 251 252 254 257 259 260 262 264 265 267 271 274 276 278 280 282 283 284 285 286 288 288 287 287 288 290 292 293 293 293 293 293 294 295 296 296 297 296 297 297 297 298 299
249 251 252 254 256 257 259 261 263 266 270 271 273 275 277 279 281 283 284 284 284 287 289 290 290 291 291 293 294 294 294 293 294 295 296 296 297 297 299 300 300 300 299 299
249 252 254 256 258 258 261 264 266 269 271 274 275 276 278 279 280 282 283 283 284 286 288 290 291 292 293 293 294 294 294 294 295 296 296 297 297 298 300 301 301 302 302 301
249 252 254 257 258 260 262 266 268 270 271 274 277 279 281 282 282 282 282 284 286 287 289 290 290 290 292 293 294 295 295 295 296 295 296 298 299 299 300 299 299 300 301 301
252 255 256 258 259 260 264 267 270 274 275 276 278 280 281 283 285 285 285 287 287 289 290 290 290 291 291 292 294 294 295 296 297 297 297 298 299 299 299 299 299 299 300 301
250 252 254 256 259 262 264 268 272 275 277 278 278 279 281 283 285 286 288 289 288 289 291 292 292 293 293 294 295 296 296 296 297 297 297 298 299 300 300 300 301 301 301 302
Height
5882 5884 5886 5887 5889 5891 5892 5894 5895 5895 5896 5896 5897 5896 5896 5896 5896 5895 5894 5893 5892 5891 5889 5888 5887 5885 5883 5882 5880 5877 5875 5873 5871 5869 5866 5864 5863 5861 5859 5858 5857 5856 5855 5854
5877 5879 5881 5882 5884 5886 5887 5889 5890 5890 5891 5891 5891 5891 5891 5891 5891 5890 5889 5889 5887 5886 5885 5883 5882 5880 5878 5877 5875 5873 5871 5868 5866 5863 5861 5859 5857 5856 5854 5853 5852 5850 5849 5848
5872 5874 5875 5877 5879 5881 5882 5883 5885 5885 5887 5886 5886 5886 5886 5886 5886 5885 5884 5883 5882 5881 5880 5878 5877 5875 5873 5871 5869 5867 5865 5863 5861 5858 5856 5854 5852 5851 5849 5847 5846 5845 5843 5842
5867 5869 5870 5874 5874 5875 5877 5877 5879 5879 5880 5880 5880 5881 5881 5880 5880 5880 5879 5878 5877 5876 5874 5873 5871 5869 5868 5866 5864 5862 5860 5858 5855 5852 5851 5849 5847 5845 5843 5842 5840 5839 5837 5836
5861 5863 5864 5867 5868 5869 5870 5871 5872 5873 5873 5874 5874 5874 5874 5874 5874 5873 5873 5872 5871 5870 5868 5867 5865 5863 5862 5860 5858 5856 5854 5852 5849 5847 5845 5843 5841 5839 5838 5836 5834 5832 5831 5829
5854 5857 5859 5861 5862 5863 5865 5865 5866 5866 5867 5867 5868 5869 5869 5868 5867 5867 5866 5865 5864 5863 5862 5860 5859 5857 5856 5854 5851 5849 5847 5845 5843 5840 5838 5836 5834 5832 5830 5829 5827 5825 5823 5821
5848 5850 5852 5854 5854 5856 5859 5859 5859 5859 5860 5860 5861 5862 5862 5861 5861 5860 5860 5859 5858 5856 5855 5854 5852 5851 5849 5847 5844 5842 5840 5838 5835 5833 5831 5829 5827 5824 5822 5821 5819 5817 5816 5814
5841 5844 5847 5846 5848 5850 5851 5851 5851 5852 5853 5853 5854 5854 5854 5854 5854 5854 5853 5852 5850 5849 5848 5846 5845 5843 5841 5839 5836 5834 5832 5830 5827 5824 5822 5820 5818 5816 5814 5813 5811 5809 5807 5806
5835 5838 5838 5839 5840 5842 5843 5844 5845 5846 5846 5846 5847 5847 5847 5847 5847 5846 5845 5844 5843 5842 5840 5839 5837 5835 5833 5831 5828 5826 5824 5821 5817 5815 5813 5812 5810 5808 5806 5804 5802 5800 5799 5797
5828 5829 5831 5832 5833 5835 5836 5837 5838 5838 5839 5839 5839 5840 5840 5839 5839 5838 5838 5837 5835 5834 5832 5831 5829 5827 5824 5822 5819 5817 5814 5812 5809 5806 5805 5803 5801 5799 5797 5795 5793 5792 5790 5788
5820 5822 5823 5824 5826 5828 5829 5830 5830 5831 5831 5832 5832 5832 5832 5832 5831 5830 5829 5828 5827 5825 5824 5822 5820 5818 5816 5813 5810 5808 5805 5803 5801 5798 5796 5794 5793 5791 5789 5787 5785 5783 5781 5779
5813 5815 5816 5817 5819 5820 5821 5822 5823 5823 5824 5824 5824 5824 5824 5823 5823 5822 5821 5820 5818 5817 5815 5813 5812 5809 5807 5804 5802 5799 5797 5795 5792 5790 5787 5785 5783 5782 5780 5778 5776 5774 5772 5770
5804 5806 5808 5810 5811 5812 5813 5814 5814 5815 5815 5816 5816 5815 5815 5815 5814 5814 5812 5811 5809 5808 5806 5804 5802 5800 5798 5795 5793 5790 5788 5785 5783 5781 5779 5776 5774 5772 5771 5769 5767 5765 5762 5760
5797 5799 5800 5802 5803 5804 5805 5806 5806 5807 5807 5807 5807 5807 5807 5806 5805 5805 5804 5802 5801 5799 5797 5795 5793 5791 5789 5786 5784 5781 5779 5776 5774 5772 5770 5768 5766 5763 5762 5760 5758 5755 5753 5751
5789 5791 5793 5794 5795 5796 5797 5797 5798 5799 5799 5799 5799 5799 5798 5798 5797 5796 5795 5794 5792 5790 5788 5786 5784 5782 5780 5777 5774 5772 5769 5767 5765 5763 5761 5759 5757 5754 5752 5750 5748 5745 5743 5741
5782 5783 5785 5786 5786 5787 5788 5789 5790 5790 5790 5790 5790 5790 5789 5789 5788 5787 5786 5785 5783 5782 5780 5778 5776 5773 5771 5768 5766 5763 5760 5758 5756 5754 5752 5750 5748 5745 5743 5741 5738 5736 5734 5731
5775 5776 5777 5778 5779 5779 5780 5780 5781 5781 5781 5781 5781 5781 5781 5780 5779 5778 5777 5776 5774 5773 5771 5769 5766 5764 5762 5759 5757 5754 5751 5749 5747 5745 5743 5741 5739 5736 5734 5732 5729 5726 5724 5721
5767 5768 5769 5770 5771 5771 5772 5772 5773 5773 5773 5773 5773 5773 5772 5772 5771 5770 5769 5767 5765 5764 5762 5760 5758 5755 5753 5751 5748 5745 5743 5740 5738 5736 5734 5732 5730 5728 5725 5723 5720 5717 5715 5712
5759 5760 5761 5762 5763 5763 5764 5764 5764 5765 5765 5765 5765 5765 5764 5763 5762 5761 5760 5758 5756 5755 5753 5751 5748 5746 5744 5741 5739 5737 5734 5732 5729 5727 5725 5723 5720 5718 5716 5713 5711 5708 5705 5702
5751 5752 5753 5754 5755 5755 5756 5756 5756 5756 5757 5757 5757 5757 5756 5755 5754 5753 5751 5749 5747 5746 5744 5742 5740 5738 5735 5733 5730 5728 5726 5723 5721 5719 5716 5714 5712 5709 5707 5704 5701 5698 5695 5692
5743 5744 5745 5746 5747 5747 5748 5748 5748 5749 5749 5748 5748 5748 5748 5747 5746 5744 5743 5741 5740 5737 5735 5733 5732 5729 5727 5725 5722 5720 5718 5715 5713 5710 5708 5705 5703 5700 5698 5695 5692 5689 5685 5682
5736 5737 5738 5738 5739 5740 5740 5741 5741 5741 5741 5741 5741 5740 5739 5738 5737 5736 5735 5733 5731 5729 5727 5726 5723 5721 5719 5717 5714 5712 5709 5707 5704 5702 5700 5697 5694 5692 5689 5686 5682 5679 5676 5672
5728 5729 5730 5731 5732 5732 5733 5733 5733 5733 5733 5733 5733 5732 5731 5730 5729 5728 5727 5725 5723 5721 5720 5718 5715 5713 5711 5709 5707 5704 5701 5698 5696 5694 5691 5688 5686 5683 5680 5677 5673 5670 5666 5663
5721 5722 5723 5723 5724 5724 5725 5725 5725 5725 5725 5725 5724 5724 5723 5722 5720 5719 5718 5717 5715 5713 5712 5709 5708 5706 5703 5701 5698 5696 5693 5691 5688 5685 5683 5680 5677 5674 5671 5667 5664 5660 5657 5653
5714 5715 5716 5716 5717 5717 5718 5718 5718 5717 5717 5716 5716 5716 5715 5714 5713 5711 5710 5709 5707 5705 5703 5701 5699 5697 5695 5692 5690 5687 5685 5682 5680 5677 5674 5671 5668 5665 5662 5658 5655 5651 5647 5644
5707 5708 5709 5709 5710 5710 5710 5710 5710 5710 5709 5709 5708 5708 5707 5706 5705 5703 5702 5700 5698 5697 5695 5693 5691 5688 5686 5684 5681 5679 5676 5673 5671 5668 5665 5662 5659 5656 5652 5649 5645 5641 5638 5634
5701 5702 5702 5703 5703 5703 5703 5703 5703 5702 5702 5701 5701 5700 5699 5698 5697 5695 5693 5692 5690 5688 5686 5684 5682 5680 5678 5675 5673 5670 5667 5665 5662 5659 5656 5652 5649 5646 5642 5639 5635 5631 5628 5624